Time,TemperatureF,DewpointF,PressureIn,WindDirection,WindDirectionDegrees,WindSpeedMPH,WindSpeedGustMPH,Humidity,HourlyPrecipIn,Conditions,Clouds,dailyrainin,SoftwareType,DateUTC
2013-06-09 00:04:00,60.6,54.8,29.10,SE,135,0.0,0.0,81,0.00,,---,0.12,VWS V13.01,2013-06-09 05:04:00,
2013-06-09 00:10:00,60.6,54.8,29.10,SE,135,0.0,0.0,81,0.00,,---,0.00,VWS V13.01,2013-06-09 05:10:00,
2013-06-09 00:16:00,60.6,54.8,29.10,ESE,112,0.0,0.0,81,0.00,,---,0.00,VWS V13.01,2013-06-09 05:16:00,
2013-06-09 00:22:00,60.6,54.8,29.10,ESE,112,0.0,0.0,81,0.00,,---,0.00,VWS V13.01,2013-06-09 05:22:00,
2013-06-09 00:28:00,60.6,54.4,29.10,ESE,112,0.0,0.0,80,0.00,,---,0.00,VWS V13.01,2013-06-09 05:28:00,
2013-06-09 00:34:00,60.6,54.4,29.10,ESE,112,0.0,0.0,80,0.00,,---,0.00,VWS V13.01,2013-06-09 05:34:00,
2013-06-09 00:40:00,60.6,54.4,29.10,SE,135,0.0,0.0,80,0.00,,---,0.00,VWS V13.01,2013-06-09 05:40:00,
2013-06-09 00:46:00,60.6,54.4,29.10,SE,135,0.0,0.0,80,0.00,,---,0.00,VWS V13.01,2013-06-09 05:46:00,
2013-06-09 00:52:00,60.6,54.4,29.09,SE,135,0.0,0.0,80,0.00,,---,0.00,VWS V13.01,2013-06-09 05:52:00,
2013-06-09 00:58:00,60.6,54.4,29.09,SE,135,0.0,0.0,80,0.00,,---,0.00,VWS V13.01,2013-06-09 05:58:00,
2013-06-09 01:04:00,60.6,54.4,29.08,ESE,112,0.0,0.0,80,0.00,,---,0.00,VWS V13.01,2013-06-09 06:04:00,
2013-06-09 01:10:00,60.6,54.4,29.09,ESE,112,0.0,0.0,80,0.00,,---,0.00,VWS V13.01,2013-06-09 06:10:00,
2013-06-09 01:16:00,60.6,54.4,29.08,SE,135,0.0,0.0,80,0.00,,---,0.00,VWS V13.01,2013-06-09 06:16:00,
2013-06-09 01:22:00,60.6,54.4,29.07,SE,135,0.0,0.0,80,0.00,,---,0.00,VWS V13.01,2013-06-09 06:22:00,
2013-06-09 01:28:00,60.4,54.2,29.07,SE,135,0.0,0.0,80,0.00,,---,0.00,VWS V13.01,2013-06-09 06:28:00,
2013-06-09 01:35:00,60.4,54.2,29.07,ESE,112,0.0,0.0,80,0.00,,---,0.00,VWS V13.01,2013-06-09 06:35:00,
2013-06-09 01:41:00,60.4,53.9,29.07,ESE,112,0.0,0.0,79,0.00,,---,0.00,VWS V13.01,2013-06-09 06:41:00,
2013-06-09 01:47:00,60.4,53.9,29.07,ESE,112,0.0,0.0,79,0.00,,---,0.00,VWS V13.01,2013-06-09 06:47:00,
2013-06-09 01:53:00,60.4,53.9,29.07,ESE,112,0.0,0.0,79,0.00,,---,0.00,VWS V13.01,2013-06-09 06:53:00,
2013-06-09 01:59:00,60.4,53.9,29.06,SE,135,0.0,0.0,79,0.00,,---,0.00,VWS V13.01,2013-06-09 06:59:00,
2013-06-09 02:05:00,60.4,53.9,29.07,ESE,112,0.0,0.0,79,0.00,,---,0.00,VWS V13.01,2013-06-09 07:05:00,
2013-06-09 02:11:00,60.4,54.2,29.06,ESE,112,0.0,0.0,80,0.00,,---,0.00,VWS V13.01,2013-06-09 07:11:00,
2013-06-09 02:17:00,60.0,53.8,29.06,SE,135,0.0,0.0,80,0.00,,---,0.00,VWS V13.01,2013-06-09 07:17:00,
2013-06-09 02:23:00,60.0,53.5,29.05,SE,135,0.0,0.0,79,0.00,,---,0.00,VWS V13.01,2013-06-09 07:23:00,
2013-06-09 02:29:00,60.0,53.5,29.05,ESE,112,0.0,0.0,79,0.00,,---,0.00,VWS V13.01,2013-06-09 07:29:00,
2013-06-09 02:35:00,60.0,53.5,29.05,ESE,112,13.4,13.4,79,0.00,,---,0.00,VWS V13.01,2013-06-09 07:35:00,
2013-06-09 02:41:00,60.0,53.5,29.04,ESE,112,3.4,3.4,79,0.00,,---,0.00,VWS V13.01,2013-06-09 07:41:00,
2013-06-09 02:47:00,60.2,53.3,29.04,ESE,112,1.2,1.2,78,0.00,,---,0.00,VWS V13.01,2013-06-09 07:47:00,
2013-06-09 02:53:00,60.4,53.5,29.04,SE,135,11.6,11.6,78,0.00,,---,0.00,VWS V13.01,2013-06-09 07:53:00,
2013-06-09 02:59:00,60.2,53.3,29.04,SE,135,10.6,10.6,78,0.00,,---,0.00,VWS V13.01,2013-06-09 07:59:00,
2013-06-09 03:05:00,60.0,53.1,29.03,East,90,0.0,0.0,78,0.00,,---,0.00,VWS V13.01,2013-06-09 08:05:00,
2013-06-09 03:11:00,60.0,52.8,29.03,SE,135,0.0,0.0,77,0.00,,---,0.00,VWS V13.01,2013-06-09 08:11:00,
2013-06-09 03:17:00,60.0,52.8,29.04,SE,135,3.0,3.0,77,0.00,,---,0.00,VWS V13.01,2013-06-09 08:17:00,
2013-06-09 03:23:00,60.0,52.8,29.03,ESE,112,0.0,0.0,77,0.00,,---,0.00,VWS V13.01,2013-06-09 08:23:00,
2013-06-09 03:29:00,59.9,53.0,29.04,ESE,112,0.0,0.0,78,0.00,,---,0.00,VWS V13.01,2013-06-09 08:29:00,
2013-06-09 03:36:00,59.7,52.8,29.04,SE,135,0.0,0.0,78,0.02,,---,0.02,VWS V13.01,2013-06-09 08:36:00,
2013-06-09 03:42:00,59.5,53.0,29.04,SE,135,0.0,0.0,79,0.02,,---,0.02,VWS V13.01,2013-06-09 08:42:00,
2013-06-09 03:48:00,59.5,53.3,29.04,SE,135,4.4,4.4,80,0.02,,---,0.02,VWS V13.01,2013-06-09 08:48:00,
2013-06-09 03:54:00,59.1,52.9,29.04,SE,135,0.0,0.0,80,0.04,,---,0.04,VWS V13.01,2013-06-09 08:54:00,
2013-06-09 04:00:00,58.8,53.0,29.03,ESE,112,0.0,0.0,81,0.06,,---,0.06,VWS V13.01,2013-06-09 09:00:00,
2013-06-09 04:06:00,58.8,53.0,29.03,SE,135,0.0,0.0,81,0.06,,---,0.06,VWS V13.01,2013-06-09 09:06:00,
2013-06-09 04:12:00,58.8,53.3,29.03,SE,135,0.0,0.0,82,0.08,,---,0.08,VWS V13.01,2013-06-09 09:12:00,
2013-06-09 04:18:00,58.6,53.1,29.03,ESE,112,0.0,0.0,82,0.10,,---,0.10,VWS V13.01,2013-06-09 09:18:00,
2013-06-09 04:24:00,58.2,52.7,29.03,ESE,112,0.0,0.0,82,0.10,,---,0.10,VWS V13.01,2013-06-09 09:24:00,
2013-06-09 04:30:00,58.2,52.7,29.03,SE,135,0.0,0.0,82,0.08,,---,0.10,VWS V13.01,2013-06-09 09:30:00,
2013-06-09 04:36:00,58.1,53.0,29.02,SE,135,0.0,0.0,83,0.10,,---,0.12,VWS V13.01,2013-06-09 09:36:00,
2013-06-09 04:42:00,57.9,52.8,29.02,SE,135,0.0,0.0,83,0.10,,---,0.12,VWS V13.01,2013-06-09 09:42:00,
2013-06-09 04:48:00,57.9,52.8,29.02,SE,135,0.0,0.0,83,0.10,,---,0.12,VWS V13.01,2013-06-09 09:48:00,
2013-06-09 04:54:00,57.7,52.6,29.02,SE,135,0.0,0.0,83,0.08,,---,0.12,VWS V13.01,2013-06-09 09:54:00,
2013-06-09 05:00:00,57.7,52.6,29.02,SE,135,0.0,0.0,83,0.06,,---,0.12,VWS V13.01,2013-06-09 10:00:00,
2013-06-09 05:07:00,57.7,52.6,29.02,ESE,112,0.0,0.0,83,0.04,,---,0.12,VWS V13.01,2013-06-09 10:07:00,
2013-06-09 05:13:00,57.7,52.6,29.02,SE,135,0.0,0.0,83,0.04,,---,0.12,VWS V13.01,2013-06-09 10:13:00,
2013-06-09 05:19:00,57.7,52.6,29.02,ESE,112,8.0,8.0,83,0.02,,---,0.12,VWS V13.01,2013-06-09 10:19:00,
2013-06-09 05:25:00,57.7,52.6,29.02,SE,135,5.8,5.8,83,0.02,,---,0.12,VWS V13.01,2013-06-09 10:25:00,
2013-06-09 05:31:00,57.7,52.6,29.02,SE,135,0.0,0.0,83,0.00,,---,0.12,VWS V13.01,2013-06-09 10:31:00,
2013-06-09 05:37:00,57.9,52.8,29.01,SE,135,0.0,0.0,83,0.00,,---,0.12,VWS V13.01,2013-06-09 10:37:00,
2013-06-09 05:44:00,57.9,52.8,29.01,SE,135,0.0,0.0,83,0.00,,---,0.12,VWS V13.01,2013-06-09 10:44:00,
2013-06-09 05:50:00,57.9,52.8,29.01,SE,135,0.0,0.0,83,0.00,,---,0.12,VWS V13.01,2013-06-09 10:50:00,
2013-06-09 05:56:00,58.1,53.0,29.01,SE,135,0.0,0.0,83,0.00,,---,0.12,VWS V13.01,2013-06-09 10:56:00,
2013-06-09 06:02:00,58.1,53.0,29.02,SE,135,4.8,4.8,83,0.00,,---,0.12,VWS V13.01,2013-06-09 11:02:00,
2013-06-09 06:08:00,58.2,53.1,29.01,South,180,8.4,8.4,83,0.00,,---,0.12,VWS V13.01,2013-06-09 11:08:00,
2013-06-09 06:14:00,58.6,53.5,29.01,SE,135,0.0,0.0,83,0.00,,---,0.12,VWS V13.01,2013-06-09 11:14:00,
2013-06-09 06:20:00,58.6,53.5,29.01,SSE,158,0.0,0.0,83,0.00,,---,0.12,VWS V13.01,2013-06-09 11:20:00,
2013-06-09 06:26:00,58.8,53.7,29.02,SE,135,10.2,10.2,83,0.00,,---,0.12,VWS V13.01,2013-06-09 11:26:00,
2013-06-09 06:32:00,58.8,53.3,29.02,SE,135,8.8,8.8,82,0.00,,---,0.12,VWS V13.01,2013-06-09 11:32:00,
2013-06-09 06:38:00,58.8,53.3,29.02,SE,135,0.0,0.0,82,0.00,,---,0.12,VWS V13.01,2013-06-09 11:38:00,
2013-06-09 06:44:00,58.8,53.3,29.01,SE,135,0.0,0.0,82,0.00,,---,0.12,VWS V13.01,2013-06-09 11:44:00,
2013-06-09 06:50:00,58.8,53.3,29.01,SE,135,0.0,0.0,82,0.00,,---,0.12,VWS V13.01,2013-06-09 11:50:00,
2013-06-09 06:56:00,58.8,53.3,29.01,SE,135,0.0,0.0,82,0.00,,---,0.12,VWS V13.01,2013-06-09 11:56:00,
2013-06-09 07:02:00,59.0,53.2,29.02,SE,135,0.0,0.0,81,0.00,,---,0.12,VWS V13.01,2013-06-09 12:02:00,
2013-06-09 07:08:00,59.1,53.3,29.01,SE,135,0.0,0.0,81,0.00,,---,0.12,VWS V13.01,2013-06-09 12:08:00,
2013-06-09 07:14:00,59.1,53.3,29.01,SE,135,3.0,3.0,81,0.00,,---,0.12,VWS V13.01,2013-06-09 12:14:00,
2013-06-09 07:20:00,59.3,53.5,29.02,SE,135,15.6,15.6,81,0.00,,---,0.12,VWS V13.01,2013-06-09 12:20:00,
2013-06-09 07:27:00,59.3,53.5,29.01,SE,135,0.0,0.0,81,0.00,,---,0.12,VWS V13.01,2013-06-09 12:27:00,
2013-06-09 07:33:00,59.3,53.5,29.01,SE,135,0.0,0.0,81,0.00,,---,0.12,VWS V13.01,2013-06-09 12:33:00,
2013-06-09 07:39:00,59.5,53.7,29.01,SE,135,0.0,0.0,81,0.00,,---,0.12,VWS V13.01,2013-06-09 12:39:00,
2013-06-09 07:45:00,59.5,53.7,29.01,SE,135,0.0,0.0,81,0.00,,---,0.12,VWS V13.01,2013-06-09 12:45:00,
2013-06-09 07:51:00,59.3,53.5,29.00,SE,135,0.0,0.0,81,0.00,,---,0.12,VWS V13.01,2013-06-09 12:51:00,
2013-06-09 07:57:00,59.5,53.7,29.01,SE,135,0.0,0.0,81,0.00,,---,0.12,VWS V13.01,2013-06-09 12:57:00,
2013-06-09 08:03:00,59.5,53.7,29.01,SE,135,0.0,0.0,81,0.00,,---,0.12,VWS V13.01,2013-06-09 13:03:00,
2013-06-09 08:09:00,59.5,53.7,29.00,SE,135,0.0,0.0,81,0.00,,---,0.12,VWS V13.01,2013-06-09 13:09:00,
2013-06-09 08:15:00,59.5,53.7,29.00,SE,135,0.0,0.0,81,0.00,,---,0.12,VWS V13.01,2013-06-09 13:15:00,
2013-06-09 08:21:00,59.5,54.0,29.00,SE,135,8.8,8.8,82,0.00,,---,0.12,VWS V13.01,2013-06-09 13:21:00,
2013-06-09 08:27:00,59.7,54.2,29.00,SE,135,0.0,0.0,82,0.00,,---,0.12,VWS V13.01,2013-06-09 13:27:00,
2013-06-09 08:33:00,59.7,54.2,29.00,SE,135,0.0,0.0,82,0.00,,---,0.12,VWS V13.01,2013-06-09 13:33:00,
2013-06-09 08:39:00,59.9,54.4,29.00,SE,135,0.0,0.0,82,0.00,,---,0.12,VWS V13.01,2013-06-09 13:39:00,
2013-06-09 08:45:00,60.0,54.5,29.00,SE,135,0.0,0.0,82,0.00,,---,0.12,VWS V13.01,2013-06-09 13:45:00,
2013-06-09 08:51:00,60.4,54.9,29.00,SE,135,0.0,0.0,82,0.00,,---,0.12,VWS V13.01,2013-06-09 13:51:00,
2013-06-09 08:57:00,60.6,55.1,29.00,SE,135,0.0,0.0,82,0.00,,---,0.12,VWS V13.01,2013-06-09 13:57:00,
2013-06-09 09:03:00,61.1,55.6,29.00,ESE,112,0.0,0.0,82,0.00,,---,0.12,VWS V13.01,2013-06-09 14:03:00,
2013-06-09 09:09:00,61.3,55.8,29.00,SE,135,2.6,2.6,82,0.00,,---,0.12,VWS V13.01,2013-06-09 14:09:00,
2013-06-09 09:16:00,61.8,55.9,29.00,SE,135,0.0,0.0,81,0.00,,---,0.12,VWS V13.01,2013-06-09 14:16:00,
2013-06-09 09:22:00,62.2,56.3,28.99,SE,135,0.0,0.0,81,0.00,,---,0.12,VWS V13.01,2013-06-09 14:22:00,
2013-06-09 09:28:00,62.4,56.5,28.99,SE,135,0.0,0.0,81,0.00,,---,0.12,VWS V13.01,2013-06-09 14:28:00,
2013-06-09 09:34:00,62.6,56.3,29.00,SE,135,6.6,6.6,80,0.00,,---,0.12,VWS V13.01,2013-06-09 14:34:00,
2013-06-09 09:40:00,62.7,56.5,28.99,SE,135,12.4,12.4,80,0.00,,---,0.12,VWS V13.01,2013-06-09 14:40:00,
2013-06-09 09:46:00,62.6,56.3,28.99,SE,135,0.0,0.0,80,0.00,,---,0.12,VWS V13.01,2013-06-09 14:46:00,
2013-06-09 09:52:00,62.7,56.5,28.99,SE,135,5.2,5.2,80,0.00,,---,0.12,VWS V13.01,2013-06-09 14:52:00,
2013-06-09 09:58:00,62.6,56.3,28.99,SE,135,0.0,0.0,80,0.00,,---,0.12,VWS V13.01,2013-06-09 14:58:00,
2013-06-09 10:04:00,62.4,56.5,28.99,SE,135,3.0,3.0,81,0.00,,---,0.12,VWS V13.01,2013-06-09 15:04:00,
2013-06-09 10:10:00,62.4,56.5,29.00,SE,135,4.0,4.0,81,0.00,,---,0.12,VWS V13.01,2013-06-09 15:10:00,
2013-06-09 10:16:00,62.4,56.5,29.00,SE,135,0.0,0.0,81,0.04,,---,0.17,VWS V13.01,2013-06-09 15:16:00,
2013-06-09 10:22:00,62.2,56.6,29.00,SE,135,0.0,0.0,82,0.04,,---,0.17,VWS V13.01,2013-06-09 15:22:00,
2013-06-09 10:28:00,61.8,56.2,29.00,SE,135,0.0,0.0,82,0.06,,---,0.19,VWS V13.01,2013-06-09 15:28:00,
2013-06-09 10:34:00,61.7,56.5,29.00,SE,135,0.0,0.0,83,0.10,,---,0.22,VWS V13.01,2013-06-09 15:34:00,
2013-06-09 10:40:00,61.5,56.3,29.00,SE,135,0.0,0.0,83,0.12,,---,0.24,VWS V13.01,2013-06-09 15:40:00,
2013-06-09 10:46:00,61.5,56.6,29.00,SE,135,0.0,0.0,84,0.14,,---,0.27,VWS V13.01,2013-06-09 15:46:00,
2013-06-09 10:52:00,61.5,56.6,29.01,SSE,158,0.0,0.0,84,0.16,,---,0.29,VWS V13.01,2013-06-09 15:52:00,
2013-06-09 10:58:00,61.5,57.0,29.00,SE,135,0.0,0.0,85,0.16,,---,0.29,VWS V13.01,2013-06-09 15:58:00,
2013-06-09 11:04:00,61.5,57.0,29.00,ESE,112,0.0,0.0,85,0.18,,---,0.31,VWS V13.01,2013-06-09 16:04:00,
2013-06-09 11:10:00,61.5,57.0,29.00,SE,135,5.8,5.8,85,0.18,,---,0.33,VWS V13.01,2013-06-09 16:10:00,
2013-06-09 11:16:00,61.7,57.2,29.00,SE,135,2.2,2.2,85,0.16,,---,0.33,VWS V13.01,2013-06-09 16:16:00,
2013-06-09 11:23:00,61.8,57.2,29.01,SE,135,0.0,0.0,85,0.14,,---,0.33,VWS V13.01,2013-06-09 16:23:00,
2013-06-09 11:29:00,62.0,57.8,29.00,SE,135,0.0,0.0,86,0.12,,---,0.33,VWS V13.01,2013-06-09 16:29:00,
2013-06-09 11:35:00,62.2,58.0,29.00,SE,135,0.0,0.0,86,0.10,,---,0.33,VWS V13.01,2013-06-09 16:35:00,
2013-06-09 11:41:00,62.4,58.2,29.00,SE,135,0.0,0.0,86,0.06,,---,0.33,VWS V13.01,2013-06-09 16:41:00,
2013-06-09 11:47:00,62.4,58.2,29.00,SE,135,0.0,0.0,86,0.06,,---,0.33,VWS V13.01,2013-06-09 16:47:00,
2013-06-09 11:53:00,62.4,58.2,29.00,SSE,158,0.0,0.0,86,0.04,,---,0.33,VWS V13.01,2013-06-09 16:53:00,
2013-06-09 11:59:00,62.6,58.4,29.00,SE,135,0.0,0.0,86,0.02,,---,0.33,VWS V13.01,2013-06-09 16:59:00,
2013-06-09 12:05:00,62.9,58.7,29.00,SE,135,0.0,0.0,86,0.02,,---,0.33,VWS V13.01,2013-06-09 17:05:00,
2013-06-09 12:11:00,63.1,58.8,29.00,SE,135,13.8,13.8,86,0.00,,---,0.33,VWS V13.01,2013-06-09 17:11:00,
2013-06-09 12:17:00,63.6,59.3,28.99,SE,135,18.6,18.6,86,0.00,,---,0.33,VWS V13.01,2013-06-09 17:17:00,
2013-06-09 12:23:00,64.2,59.9,28.99,ESE,112,10.6,10.6,86,0.00,,---,0.33,VWS V13.01,2013-06-09 17:23:00,
2013-06-09 12:29:00,64.7,60.4,28.99,ESE,112,8.4,8.4,86,0.00,,---,0.33,VWS V13.01,2013-06-09 17:29:00,
2013-06-09 12:35:00,65.1,60.8,28.99,SSE,158,9.8,9.8,86,0.00,,---,0.33,VWS V13.01,2013-06-09 17:35:00,
2013-06-09 12:41:00,65.3,60.7,28.99,SE,135,0.0,0.0,85,0.00,,---,0.33,VWS V13.01,2013-06-09 17:41:00,
2013-06-09 12:47:00,65.4,60.8,28.99,SE,135,0.0,0.0,85,0.00,,---,0.33,VWS V13.01,2013-06-09 17:47:00,
2013-06-09 12:53:00,66.0,61.0,28.99,SE,135,7.0,7.0,84,0.00,,---,0.33,VWS V13.01,2013-06-09 17:53:00,
2013-06-09 12:59:00,66.5,61.5,28.99,ESE,112,19.2,19.2,84,0.00,,---,0.33,VWS V13.01,2013-06-09 17:59:00,
2013-06-09 13:05:00,66.7,61.4,28.99,SE,135,0.0,0.0,83,0.00,,---,0.33,VWS V13.01,2013-06-09 18:05:00,
2013-06-09 13:11:00,66.7,61.0,29.00,SE,135,0.0,0.0,82,0.00,,---,0.33,VWS V13.01,2013-06-09 18:11:00,
2013-06-09 13:17:00,66.7,61.0,28.99,SE,135,10.6,10.6,82,0.00,,---,0.33,VWS V13.01,2013-06-09 18:17:00,
2013-06-09 13:23:00,66.9,61.2,28.99,SE,135,0.0,0.0,82,0.00,,---,0.33,VWS V13.01,2013-06-09 18:23:00,
2013-06-09 13:29:00,67.2,61.5,28.99,SSE,158,10.2,10.2,82,0.00,,---,0.33,VWS V13.01,2013-06-09 18:29:00,
2013-06-09 13:35:00,68.1,62.8,28.99,SE,135,12.4,12.4,83,0.00,,---,0.33,VWS V13.01,2013-06-09 18:35:00,
2013-06-09 13:41:00,68.7,63.0,28.99,SE,135,0.0,0.0,82,0.00,,---,0.33,VWS V13.01,2013-06-09 18:41:00,
2013-06-09 13:47:00,69.2,63.1,28.99,SE,135,14.6,14.6,81,0.00,,---,0.33,VWS V13.01,2013-06-09 18:47:00,
2013-06-09 13:54:00,69.6,63.2,28.99,SE,135,0.0,0.0,80,0.00,,---,0.33,VWS V13.01,2013-06-09 18:54:00,
2013-06-09 14:00:00,70.1,63.3,28.99,SSE,158,12.8,12.8,79,0.00,,---,0.33,VWS V13.01,2013-06-09 19:00:00,
2013-06-09 14:06:00,70.5,63.3,28.99,South,180,12.0,12.0,78,0.00,,---,0.33,VWS V13.01,2013-06-09 19:06:00,
2013-06-09 14:12:00,70.7,63.1,28.98,SE,135,18.2,18.2,77,0.00,,---,0.33,VWS V13.01,2013-06-09 19:12:00,
2013-06-09 14:18:00,71.4,63.8,28.98,SE,135,26.2,26.2,77,0.00,,---,0.33,VWS V13.01,2013-06-09 19:18:00,
2013-06-09 14:24:00,71.9,63.9,28.98,SE,135,0.0,0.0,76,0.00,,---,0.33,VWS V13.01,2013-06-09 19:24:00,
2013-06-09 14:30:00,72.3,63.9,28.98,SE,135,0.0,0.0,75,0.00,,---,0.33,VWS V13.01,2013-06-09 19:30:00,
2013-06-09 14:36:00,72.6,63.8,28.97,SSE,158,18.2,18.2,74,0.00,,---,0.33,VWS V13.01,2013-06-09 19:36:00,
2013-06-09 14:42:00,73.0,63.8,28.98,SE,135,0.0,0.0,73,0.00,,---,0.33,VWS V13.01,2013-06-09 19:42:00,
2013-06-09 14:48:00,73.2,63.6,28.97,SE,135,0.0,0.0,72,0.00,,---,0.33,VWS V13.01,2013-06-09 19:48:00,
2013-06-09 14:54:00,73.5,63.9,28.97,SE,135,0.0,0.0,72,0.00,,---,0.33,VWS V13.01,2013-06-09 19:54:00,
2013-06-09 15:00:00,73.2,62.8,28.97,SE,135,0.0,0.0,70,0.00,,---,0.33,VWS V13.01,2013-06-09 20:00:00,
2013-06-09 15:06:00,72.8,62.5,28.97,ESE,112,0.0,0.0,70,0.00,,---,0.33,VWS V13.01,2013-06-09 20:06:00,
2013-06-09 15:12:00,72.3,62.4,28.97,SSE,158,0.0,0.0,71,0.00,,---,0.33,VWS V13.01,2013-06-09 20:12:00,
2013-06-09 15:18:00,72.1,62.6,28.97,SE,135,15.6,15.6,72,0.00,,---,0.33,VWS V13.01,2013-06-09 20:18:00,
2013-06-09 15:24:00,71.9,62.8,28.96,SE,135,0.0,0.0,73,0.00,,---,0.33,VWS V13.01,2013-06-09 20:24:00,
2013-06-09 15:30:00,71.9,62.8,28.97,SE,135,0.0,0.0,73,0.00,,---,0.33,VWS V13.01,2013-06-09 20:30:00,
2013-06-09 15:36:00,72.3,62.8,28.97,ESE,112,0.0,0.0,72,0.00,,---,0.33,VWS V13.01,2013-06-09 20:36:00,
2013-06-09 15:43:00,72.5,63.0,28.97,SE,135,4.0,4.0,72,0.00,,---,0.33,VWS V13.01,2013-06-09 20:43:00,
2013-06-09 15:49:00,72.5,63.0,28.97,ESE,112,0.0,0.0,72,0.00,,---,0.33,VWS V13.01,2013-06-09 20:49:00,
2013-06-09 15:55:00,72.8,63.3,28.97,SE,135,18.2,18.2,72,0.00,,---,0.33,VWS V13.01,2013-06-09 20:55:00,
2013-06-09 16:01:00,73.2,63.2,28.97,ESE,112,4.4,4.4,71,0.00,,---,0.33,VWS V13.01,2013-06-09 21:01:00,
2013-06-09 16:07:00,74.1,64.1,28.97,SE,135,5.8,5.8,71,0.00,,---,0.33,VWS V13.01,2013-06-09 21:07:00,
2013-06-09 16:13:00,74.4,64.0,28.97,ESE,112,4.0,4.0,70,0.00,,---,0.33,VWS V13.01,2013-06-09 21:13:00,
2013-06-09 16:19:00,74.4,63.6,28.97,SE,135,4.8,4.8,69,0.00,,---,0.33,VWS V13.01,2013-06-09 21:19:00,
2013-06-09 16:25:00,74.3,63.1,28.97,SE,135,0.0,0.0,68,0.00,,---,0.33,VWS V13.01,2013-06-09 21:25:00,
2013-06-09 16:34:00,73.9,62.7,28.97,ESE,112,0.0,0.0,68,0.00,,---,0.33,VWS V13.01,2013-06-09 21:34:00,
2013-06-09 16:40:00,73.9,62.7,28.98,SE,135,0.0,0.0,68,0.00,,---,0.33,VWS V13.01,2013-06-09 21:40:00,
2013-06-09 16:46:00,73.5,62.7,28.97,SE,135,0.0,0.0,69,0.00,,---,0.33,VWS V13.01,2013-06-09 21:46:00,
2013-06-09 16:52:00,73.5,62.7,28.98,ESE,112,0.0,0.0,69,0.00,,---,0.33,VWS V13.01,2013-06-09 21:52:00,
2013-06-09 16:58:00,73.2,62.4,28.98,ESE,112,0.0,0.0,69,0.00,,---,0.33,VWS V13.01,2013-06-09 21:58:00,
2013-06-09 17:04:00,73.0,62.2,28.97,SE,135,0.0,0.0,69,0.00,,---,0.33,VWS V13.01,2013-06-09 22:04:00,
2013-06-09 17:10:00,72.6,61.9,28.98,SE,135,0.0,0.0,69,0.00,,---,0.33,VWS V13.01,2013-06-09 22:10:00,
2013-06-09 17:16:00,72.5,61.8,28.99,SSE,158,0.0,0.0,69,0.00,,---,0.33,VWS V13.01,2013-06-09 22:16:00,
2013-06-09 17:22:00,72.3,61.6,28.98,SE,135,0.0,5.8,69,0.00,,---,0.33,VWS V13.01,2013-06-09 22:22:00,
2013-06-09 17:28:00,72.1,61.8,28.99,SE,135,0.0,0.0,70,0.00,,---,0.33,VWS V13.01,2013-06-09 22:28:00,
2013-06-09 17:34:00,71.7,61.4,28.99,SE,135,0.0,0.0,70,0.00,,---,0.33,VWS V13.01,2013-06-09 22:34:00,
2013-06-09 17:40:00,71.6,61.3,28.99,SE,135,0.0,0.0,70,0.00,,---,0.33,VWS V13.01,2013-06-09 22:40:00,
2013-06-09 17:46:00,71.4,61.1,28.99,SE,135,0.0,0.0,70,0.00,,---,0.33,VWS V13.01,2013-06-09 22:46:00,
2013-06-09 17:52:00,71.2,61.3,28.99,ESE,112,0.0,0.0,71,0.00,,---,0.33,VWS V13.01,2013-06-09 22:52:00,
2013-06-09 17:58:00,71.0,61.1,28.99,SE,135,0.0,0.0,71,0.00,,---,0.33,VWS V13.01,2013-06-09 22:58:00,
2013-06-09 18:04:00,70.8,60.9,28.98,SSE,158,0.0,0.0,71,0.00,,---,0.33,VWS V13.01,2013-06-09 23:04:00,
2013-06-09 18:11:00,70.5,60.7,28.97,ESE,112,0.0,0.0,71,0.00,,---,0.33,VWS V13.01,2013-06-09 23:11:00,
2013-06-09 18:17:00,70.3,60.5,28.97,SE,135,0.0,0.0,71,0.00,,---,0.33,VWS V13.01,2013-06-09 23:17:00,
2013-06-09 18:23:00,70.3,60.9,28.97,SSE,158,0.0,0.0,72,0.00,,---,0.33,VWS V13.01,2013-06-09 23:23:00,
2013-06-09 18:29:00,70.1,60.7,28.97,SE,135,0.0,0.0,72,0.00,,---,0.33,VWS V13.01,2013-06-09 23:29:00,
2013-06-09 18:35:00,69.8,60.4,28.97,SE,135,0.0,0.0,72,0.00,,---,0.33,VWS V13.01,2013-06-09 23:35:00,
2013-06-09 18:41:00,69.6,60.6,28.97,SE,135,0.0,0.0,73,0.00,,---,0.33,VWS V13.01,2013-06-09 23:41:00,
2013-06-09 18:47:00,69.6,60.6,28.97,North,0,0.0,0.0,73,0.00,,---,0.33,VWS V13.01,2013-06-09 23:47:00,
2013-06-09 18:53:00,69.6,60.6,28.98,SE,135,0.0,0.0,73,0.00,,---,0.33,VWS V13.01,2013-06-09 23:53:00,
2013-06-09 18:59:00,69.2,60.6,28.98,SE,135,0.0,0.0,74,0.00,,---,0.33,VWS V13.01,2013-06-09 23:59:00,
2013-06-09 19:05:00,69.0,60.4,28.98,SE,135,0.0,0.0,74,0.00,,---,0.33,VWS V13.01,2013-06-10 00:05:00,
2013-06-09 19:11:00,69.0,60.4,28.98,SE,135,0.0,0.0,74,0.00,,---,0.33,VWS V13.01,2013-06-10 00:11:00,
2013-06-09 19:17:00,68.9,60.3,28.98,SE,135,0.0,0.0,74,0.00,,---,0.33,VWS V13.01,2013-06-10 00:17:00,
2013-06-09 19:23:00,68.7,60.1,28.98,SE,135,0.0,0.0,74,0.00,,---,0.33,VWS V13.01,2013-06-10 00:23:00,
2013-06-09 19:29:00,68.5,59.9,28.98,SE,135,0.0,0.0,74,0.00,,---,0.33,VWS V13.01,2013-06-10 00:29:00,
2013-06-09 19:35:00,68.3,60.1,28.98,East,90,0.0,0.0,75,0.00,,---,0.33,VWS V13.01,2013-06-10 00:35:00,
2013-06-09 19:41:00,68.3,60.1,28.98,East,90,0.0,0.0,75,0.00,,---,0.33,VWS V13.01,2013-06-10 00:41:00,
2013-06-09 19:47:00,68.3,60.1,28.99,ESE,112,0.0,0.0,75,0.00,,---,0.33,VWS V13.01,2013-06-10 00:47:00,
2013-06-09 19:53:00,68.1,59.9,28.99,ESE,112,0.0,0.0,75,0.00,,---,0.33,VWS V13.01,2013-06-10 00:53:00,
2013-06-09 19:59:00,68.1,59.9,28.99,ESE,112,0.0,0.0,75,0.00,,---,0.33,VWS V13.01,2013-06-10 00:59:00,
2013-06-09 20:06:00,67.8,59.6,28.99,ESE,112,0.0,0.0,75,0.00,,---,0.33,VWS V13.01,2013-06-10 01:06:00,
2013-06-09 20:12:00,67.8,59.6,28.99,ESE,112,0.0,0.0,75,0.00,,---,0.33,VWS V13.01,2013-06-10 01:12:00,
2013-06-09 20:18:00,67.8,59.6,28.99,ESE,112,0.0,0.0,75,0.00,,---,0.33,VWS V13.01,2013-06-10 01:18:00,
2013-06-09 20:24:00,67.6,59.4,28.99,ESE,112,0.0,0.0,75,0.00,,---,0.33,VWS V13.01,2013-06-10 01:24:00,
2013-06-09 20:30:00,67.6,59.4,28.99,ESE,112,0.0,0.0,75,0.00,,---,0.33,VWS V13.01,2013-06-10 01:30:00,
2013-06-09 20:36:00,67.2,59.0,28.99,ESE,112,0.0,0.0,75,0.00,,---,0.33,VWS V13.01,2013-06-10 01:36:00,
2013-06-09 20:42:00,67.1,58.9,28.99,ESE,112,0.0,0.0,75,0.00,,---,0.33,VWS V13.01,2013-06-10 01:42:00,
2013-06-09 20:48:00,66.9,58.7,28.99,ESE,112,0.0,0.0,75,0.00,,---,0.33,VWS V13.01,2013-06-10 01:48:00,
2013-06-09 20:54:00,66.7,58.5,28.99,ESE,112,0.0,0.0,75,0.00,,---,0.33,VWS V13.01,2013-06-10 01:54:00,
2013-06-09 21:00:00,66.7,58.5,29.00,ESE,112,0.0,0.0,75,0.00,,---,0.33,VWS V13.01,2013-06-10 02:00:00,
2013-06-09 21:06:00,66.3,58.5,29.00,ESE,112,0.0,0.0,76,0.00,,---,0.33,VWS V13.01,2013-06-10 02:06:00,
2013-06-09 21:12:00,66.0,58.2,29.00,ESE,112,0.0,0.0,76,0.00,,---,0.33,VWS V13.01,2013-06-10 02:12:00,
2013-06-09 21:18:00,66.0,58.2,29.00,ESE,112,0.0,0.0,76,0.00,,---,0.33,VWS V13.01,2013-06-10 02:18:00,
2013-06-09 21:24:00,65.8,58.0,29.01,ESE,112,0.0,0.0,76,0.00,,---,0.33,VWS V13.01,2013-06-10 02:24:00,
2013-06-09 21:30:00,65.4,58.0,29.01,ESE,112,0.0,0.0,77,0.00,,---,0.33,VWS V13.01,2013-06-10 02:30:00,
2013-06-09 21:36:00,65.3,57.9,29.01,ESE,112,0.0,0.0,77,0.00,,---,0.33,VWS V13.01,2013-06-10 02:36:00,
2013-06-09 21:43:00,65.1,57.7,29.02,ESE,112,0.0,0.0,77,0.00,,---,0.33,VWS V13.01,2013-06-10 02:43:00,
2013-06-09 21:49:00,64.9,57.9,29.02,ESE,112,0.0,0.0,78,0.00,,---,0.33,VWS V13.01,2013-06-10 02:49:00,
2013-06-09 21:55:00,64.5,57.5,29.02,ESE,112,0.0,0.0,78,0.00,,---,0.33,VWS V13.01,2013-06-10 02:55:00,
2013-06-09 22:01:00,64.5,57.5,29.02,ESE,112,0.0,0.0,78,0.00,,---,0.33,VWS V13.01,2013-06-10 03:01:00,
2013-06-09 22:07:00,64.2,57.2,29.02,ESE,112,0.0,0.0,78,0.00,,---,0.33,VWS V13.01,2013-06-10 03:07:00,
2013-06-09 22:13:00,64.0,57.0,29.02,ESE,112,0.0,0.0,78,0.00,,---,0.33,VWS V13.01,2013-06-10 03:13:00,
2013-06-09 22:19:00,64.0,57.0,29.02,ESE,112,0.0,0.0,78,0.00,,---,0.33,VWS V13.01,2013-06-10 03:19:00,
2013-06-09 22:25:00,63.6,56.6,29.03,ESE,112,0.0,0.0,78,0.00,,---,0.33,VWS V13.01,2013-06-10 03:25:00,
2013-06-09 22:31:00,63.6,56.6,29.03,ESE,112,0.0,0.0,78,0.00,,---,0.33,VWS V13.01,2013-06-10 03:31:00,
2013-06-09 22:37:00,63.5,56.5,29.02,ESE,112,0.0,0.0,78,0.00,,---,0.33,VWS V13.01,2013-06-10 03:37:00,
2013-06-09 22:43:00,63.3,56.3,29.02,ESE,112,0.0,0.0,78,0.00,,---,0.33,VWS V13.01,2013-06-10 03:43:00,
2013-06-09 22:49:00,63.1,56.5,29.02,ESE,112,0.0,0.0,79,0.00,,---,0.33,VWS V13.01,2013-06-10 03:49:00,
2013-06-09 22:56:00,63.1,56.5,29.02,ESE,112,0.0,0.0,79,0.00,,---,0.33,VWS V13.01,2013-06-10 03:56:00,
2013-06-09 23:02:00,62.9,56.3,29.03,ESE,112,0.0,0.0,79,0.00,,---,0.33,VWS V13.01,2013-06-10 04:02:00,
2013-06-09 23:04:00,62.7,56.1,29.03,ESE,112,0.0,0.0,79,0.00,,---,0.33,VWS V13.01,2013-06-10 04:04:00,
2013-06-09 23:06:00,62.7,56.1,29.03,ESE,112,0.0,0.0,79,0.00,,---,0.33,VWS V13.01,2013-06-10 04:06:00,
2013-06-09 23:10:00,62.7,56.1,29.03,ESE,112,0.0,0.0,79,0.00,,---,0.33,VWS V13.01,2013-06-10 04:10:00,
2013-06-09 23:16:00,62.4,56.2,29.03,ESE,112,0.0,0.0,80,0.00,,---,0.33,VWS V13.01,2013-06-10 04:16:00,
2013-06-09 23:22:00,62.4,56.2,29.03,ESE,112,0.0,0.0,80,0.00,,---,0.33,VWS V13.01,2013-06-10 04:22:00,
2013-06-09 23:28:00,62.4,56.2,29.03,ESE,112,0.0,0.0,80,0.00,,---,0.33,VWS V13.01,2013-06-10 04:28:00,
2013-06-09 23:34:00,62.4,56.2,29.03,ESE,112,0.0,0.0,80,0.00,,---,0.33,VWS V13.01,2013-06-10 04:34:00,
2013-06-09 23:40:00,62.2,56.0,29.04,ESE,112,0.0,0.0,80,0.00,,---,0.33,VWS V13.01,2013-06-10 04:40:00,
2013-06-09 23:46:00,62.0,56.1,29.04,ESE,112,0.0,0.0,81,0.00,,---,0.33,VWS V13.01,2013-06-10 04:46:00,
2013-06-09 23:52:00,61.8,55.9,29.04,ESE,112,0.0,0.0,81,0.00,,---,0.33,VWS V13.01,2013-06-10 04:52:00,
2013-06-09 23:58:00,61.8,55.9,29.04,ESE,112,0.0,0.0,81,0.00,,---,0.33,VWS V13.01,2013-06-10 04:58:00,